Home > Time Zones > World Clock > Weather > Belgium > Spa > Past weeks

Flag Weather past 2 weeks in Spa, Belgium

Now
45 °F

Low clouds.


Feels Like: 45 °F
Forecast: 32 / 43 °F
Wind: 1 mph from Northeast

Location: Spa / La Sauveniere

Current Time: Nov 24, 2014 at 6:35:18 AM

Latest Report: Nov 24, 2014 at 5:00 AM


Visibility: 2 mi

Pressure: 30.14 "Hg

Humidity: 98%

Dew point: 44 °F

Location of SpaLocation

Historic Weather in Spa — Graph

°F

Spa temperature yesterday

Maximum temperature yesterday: 55 °F (at 3:00 PM)
Minimum temperature yesterday: 47 °F (at 9:00 AM)
Average temperature yesterday: 51 °F

Past Weeks' High & Low Weather Summary

 TemperatureHumidityPressure
High57 °F (Nov 11, 2:00 PM)99% (Nov 13, 7:00 AM)30.31 "Hg (Nov 13, 7:00 AM)
Low37 °F (Nov 20, 3:00 AM)70% (Nov 10, 3:00 PM)29.54 "Hg (Nov 16, 4:00 PM)
Average45 °F90%29.82 "Hg
* Reported Nov 9 5:00 AM — Nov 24 5:00 AM, Spa, Weather by CustomWeather, © 2014

Note: Actual official high and low records may vary slightly from our data, if they occured in-between our weather recording intervals... More about our weather records

Advertising

Spa weather history for previous 24 hours

 ConditionsComfort  
Time TempWeatherWind HumidityBarometerVisibility
5:00 AM
Nov 24
45 °FLow clouds.1 mph98%30.14 "Hg2 mi
4:00 AM45 °FLight rain. Low clouds.6 mph99%30.14 "Hg1 mi
3:00 AM48 °FLight rain. Dense fog.5 mph99%30.10 "Hg0 mi
2:00 AM52 °FLow clouds.5 mph92%30.07 "Hg7 mi
1:00 AM52 °FOvercast.2 mph89%30.05 "Hg11 mi
12:00 AM52 °FClear.3 mph88%30.04 "Hg12 mi
11:00 PM
Nov 23
51 °FClear.7 mph88%30.03 "Hg10 mi
10:00 PM52 °FClear.5 mph86%30.02 "Hg13 mi
9:00 PM51 °FClear.6 mph85%30.01 "Hg12 mi
8:00 PM51 °FClear.8 mph85%30.00 "Hg12 mi
7:00 PM51 °FClear.10 mph83%29.98 "Hg13 mi
6:00 PM53 °FClear.12 mph79%29.98 "Hg15 mi
5:00 PM53 °FClear.12 mph79%29.98 "Hg15 mi
4:00 PM54 °FSunny.12 mph77%29.98 "Hg14 mi
3:00 PM55 °FSunny.7 mph75%30.00 "Hg13 mi
2:00 PM54 °FSunny.7 mph80%30.01 "Hg13 mi
1:00 PM54 °FSunny.3 mph80%30.05 "Hg14 mi
12:00 PM53 °FSunny.6 mph81%30.07 "Hg14 mi
11:00 AM51 °FSunny.7 mph85%30.08 "Hg7 mi
10:00 AM48 °FSunny.10 mph91%30.08 "HgN/A
9:00 AM47 °FSunny.10 mph91%30.08 "HgN/A
8:00 AM47 °FClear.12 mph89%30.08 "Hg6 mi
7:00 AM47 °FClear.9 mph89%30.07 "Hg7 mi
6:00 AM47 °FClear.7 mph92%30.08 "HgN/A
Weather by CustomWeather, © 2014

See weather overviewHow to use our weather pages